Volver al catálogo

STARLINK-32251

ActivoComunicacionesVLEO
NORAD 60940·PAYLOAD·🇺🇸 United States

Lanzado Aug 31, 2024 desde Vandenberg Space Force Base

Loading…

Próximos Pases (próximas 24 horas)

TLE

ActualizadoSource: CelesTrak SupGP

Época: Sep 14, 2026, 21:27 UTC

1 60940C 24155S   26257.89423611 -.00013767  00000+0 -40673-3 0  2577
2 60940  53.1592 327.8298 0001185  84.1470 192.7950 15.34399770    16

Sigue STARLINK-32251 en tiempo real con AllMySat

Download on the App Store